CXI2Q LIMJ-LFPG

Flight info

Callsign CXI2Q
Flight time 1h 17m
Altitude 36000
Route LAGEN L50 KUKEV/N0474F300 L50 BANKO/N0465F360 L615 DJL
Aircraft B738/M-SDE2E3FGHIRWXY/LB1

Departure

Time 2026-04-21 19:49
Airport Genoa Cristoforo Colombo Airport (LIMJ)

Arrival

Time 2026-04-21 21:06
Airport Charles de Gaulle International Airport (LFPG)
Time Latitude Longitude Altitude Speed Heading
2026-04-21 19:17 44.41374 8.85210 19 ft 0 kts 16°
2026-04-21 19:38 44.41378 8.85170 21 ft 0 kts 15°
2026-04-21 19:46 44.41379 8.85172 20 ft 1 kts 22°
2026-04-21 19:46 44.41382 8.85188 22 ft 2 kts 97°
2026-04-21 19:47 44.41361 8.85208 20 ft 6 kts 163°
2026-04-21 19:47 44.41309 8.85228 19 ft 9 kts 153°
2026-04-21 19:47 44.41255 8.85278 21 ft 9 kts 158°
2026-04-21 19:47 44.41194 8.85267 19 ft 9 kts 195°
2026-04-21 19:48 44.41127 8.85242 19 ft 11 kts 194°
2026-04-21 19:48 44.41046 8.85211 18 ft 12 kts 207°
2026-04-21 19:48 44.41019 8.85089 16 ft 17 kts 283°
2026-04-21 19:48 44.41106 8.84644 19 ft 86 kts 285°
2026-04-21 19:49 44.41328 8.83507 20 ft 154 kts 285°
2026-04-21 19:49 44.41632 8.81905 494 ft 174 kts 284°
2026-04-21 19:49 44.41948 8.80292 1462 ft 168 kts 285°
2026-04-21 19:49 44.42246 8.78709 2337 ft 172 kts 278°
2026-04-21 19:50 44.42205 8.77604 2867 ft 174 kts 254°
2026-04-21 19:50 44.41250 8.75780 3781 ft 190 kts 211°
2026-04-21 19:50 44.39885 8.75354 4031 ft 218 kts 170°
2026-04-21 19:50 44.38488 8.76254 4523 ft 227 kts 149°
2026-04-21 19:51 44.37122 8.77360 5168 ft 232 kts 150°
2026-04-21 19:51 44.35707 8.78490 5933 ft 238 kts 150°
2026-04-21 19:51 44.34250 8.79657 6639 ft 244 kts 151°
2026-04-21 19:51 44.32758 8.80848 7384 ft 249 kts 154°
2026-04-21 19:52 44.31087 8.81410 8081 ft 250 kts 184°
2026-04-21 19:52 44.29343 8.81277 8902 ft 253 kts 188°
2026-04-21 19:52 44.27654 8.80503 9377 ft 267 kts 219°
2026-04-21 19:52 44.26519 8.78435 9819 ft 275 kts 254°
2026-04-21 19:53 44.26357 8.75810 10544 ft 273 kts 280°
2026-04-21 19:53 44.26974 8.73323 11347 ft 273 kts 300°
2026-04-21 19:53 44.28031 8.71123 12165 ft 274 kts 306°
2026-04-21 19:53 44.29201 8.68982 12721 ft 286 kts 307°
2026-04-21 19:54 44.30467 8.66692 12923 ft 309 kts 307°
2026-04-21 19:54 44.31819 8.64212 13091 ft 331 kts 306°
2026-04-21 19:54 44.33243 8.61559 13258 ft 351 kts 306°
2026-04-21 19:54 44.34736 8.58741 13418 ft 369 kts 306°
2026-04-21 19:55 44.36279 8.55806 13813 ft 378 kts 306°
2026-04-21 19:55 44.37836 8.52833 14396 ft 380 kts 306°
2026-04-21 19:55 44.39461 8.49921 15103 ft 380 kts 310°
2026-04-21 19:55 44.41374 8.47354 15755 ft 382 kts 318°
2026-04-21 19:56 44.43391 8.44996 16365 ft 384 kts 318°
2026-04-21 19:56 44.45448 8.42590 16977 ft 386 kts 318°
2026-04-21 19:56 44.47502 8.40165 17570 ft 387 kts 317°
2026-04-21 19:56 44.49561 8.37722 18138 ft 389 kts 317°
2026-04-21 19:57 44.51633 8.35265 18638 ft 392 kts 317°
2026-04-21 19:57 44.53715 8.32790 19120 ft 394 kts 317°
2026-04-21 19:57 44.55811 8.30291 19618 ft 396 kts 317°
2026-04-21 19:57 44.57913 8.27787 20130 ft 398 kts 317°
2026-04-21 19:58 44.60039 8.25261 20485 ft 402 kts 317°
2026-04-21 19:58 44.62174 8.22713 20945 ft 404 kts 317°
2026-04-21 19:58 44.64314 8.20150 21386 ft 406 kts 317°
2026-04-21 19:58 44.66465 8.17569 21799 ft 408 kts 317°
2026-04-21 19:59 44.68631 8.14969 22219 ft 410 kts 317°
2026-04-21 19:59 44.70801 8.12365 22679 ft 411 kts 317°
2026-04-21 19:59 44.72977 8.09754 23110 ft 412 kts 317°
2026-04-21 19:59 44.75168 8.07124 23481 ft 415 kts 317°
2026-04-21 20:00 44.77366 8.04483 23796 ft 417 kts 317°
2026-04-21 20:00 44.79572 8.01831 24141 ft 417 kts 317°
2026-04-21 20:00 44.81780 7.99171 24482 ft 418 kts 317°
2026-04-21 20:00 44.83993 7.96503 24820 ft 420 kts 317°
2026-04-21 20:01 44.86213 7.93824 25127 ft 421 kts 317°
2026-04-21 20:01 44.88442 7.91131 25453 ft 422 kts 317°
2026-04-21 20:01 44.90669 7.88437 25756 ft 422 kts 317°
2026-04-21 20:01 44.92942 7.85799 26018 ft 425 kts 321°
2026-04-21 20:02 44.94570 7.84260 26179 ft 427 kts 325°
2026-04-21 20:02 44.97919 7.81269 26602 ft 424 kts 321°
2026-04-21 20:02 45.00190 7.78648 26965 ft 420 kts 317°
2026-04-21 20:02 45.02354 7.75892 27346 ft 418 kts 316°
2026-04-21 20:03 45.04477 7.73102 27705 ft 416 kts 315°
2026-04-21 20:03 45.06587 7.70303 28056 ft 415 kts 315°
2026-04-21 20:03 45.08682 7.67509 28418 ft 413 kts 315°
2026-04-21 20:03 45.10764 7.64724 28811 ft 411 kts 315°
2026-04-21 20:04 45.12140 7.62879 29064 ft 410 kts 315°
2026-04-21 20:04 45.14879 7.59196 29535 ft 408 kts 315°
2026-04-21 20:04 45.16935 7.56426 29906 ft 406 kts 315°
2026-04-21 20:04 45.18976 7.53670 30254 ft 404 kts 315°
2026-04-21 20:05 45.21008 7.50923 30556 ft 403 kts 315°
2026-04-21 20:05 45.22381 7.49067 30729 ft 403 kts 315°
2026-04-21 20:05 45.24408 7.46323 30976 ft 403 kts 315°
2026-04-21 20:05 45.26437 7.43580 31286 ft 401 kts 315°
2026-04-21 20:06 45.28454 7.40858 31626 ft 399 kts 315°
2026-04-21 20:06 45.30467 7.38146 31947 ft 398 kts 315°
2026-04-21 20:06 45.32472 7.35447 32203 ft 397 kts 315°
2026-04-21 20:06 45.34481 7.32750 32438 ft 396 kts 315°
2026-04-21 20:07 45.36484 7.30068 32717 ft 395 kts 315°
2026-04-21 20:07 45.38483 7.27399 32991 ft 394 kts 315°
2026-04-21 20:07 45.40454 7.24772 33252 ft 393 kts 315°
2026-04-21 20:07 45.42450 7.22118 33591 ft 391 kts 315°
2026-04-21 20:08 45.44443 7.19474 33917 ft 389 kts 315°
2026-04-21 20:08 45.46423 7.16851 34149 ft 389 kts 315°
2026-04-21 20:08 45.48410 7.14226 34274 ft 391 kts 315°
2026-04-21 20:08 45.50412 7.11583 34390 ft 392 kts 315°
2026-04-21 20:09 45.52415 7.08941 34569 ft 393 kts 315°
2026-04-21 20:09 45.56443 7.03637 34837 ft 395 kts 315°
2026-04-21 20:09 45.58463 7.00976 35066 ft 395 kts 315°
2026-04-21 20:10 45.60475 6.98320 35205 ft 396 kts 315°
2026-04-21 20:10 45.62500 6.95644 35369 ft 397 kts 315°
2026-04-21 20:10 45.64503 6.92998 35550 ft 397 kts 315°
2026-04-21 20:10 45.66538 6.90309 35672 ft 398 kts 315°
2026-04-21 20:11 45.68579 6.87611 35821 ft 399 kts 315°
2026-04-21 20:11 45.70621 6.84911 35937 ft 399 kts 315°
2026-04-21 20:11 45.72662 6.82211 35985 ft 400 kts 315°
2026-04-21 20:12 45.76765 6.76776 35975 ft 402 kts 315°
2026-04-21 20:12 45.80870 6.71332 35990 ft 402 kts 315°
2026-04-21 20:13 45.84931 6.65942 35998 ft 399 kts 315°
2026-04-21 20:13 45.89012 6.60515 35979 ft 400 kts 315°
2026-04-21 20:14 45.93086 6.55094 36010 ft 398 kts 315°
2026-04-21 20:14 45.97140 6.49694 35988 ft 398 kts 315°
2026-04-21 20:15 46.01205 6.44271 36028 ft 398 kts 315°
2026-04-21 20:15 46.05295 6.38804 36019 ft 403 kts 315°
2026-04-21 20:16 46.09412 6.33289 36011 ft 405 kts 315°
2026-04-21 20:16 46.13540 6.27750 36019 ft 405 kts 315°
2026-04-21 20:17 46.17663 6.22210 36010 ft 405 kts 315°
2026-04-21 20:17 46.21776 6.16675 36019 ft 404 kts 315°
2026-04-21 20:18 46.26043 6.11496 36024 ft 403 kts 321°
2026-04-21 20:18 46.30645 6.06888 36021 ft 402 kts 322°
2026-04-21 20:19 46.35271 6.02362 36010 ft 400 kts 322°
2026-04-21 20:19 46.39865 5.97829 36028 ft 399 kts 322°
2026-04-21 20:20 46.44457 5.93255 36028 ft 401 kts 322°
2026-04-21 20:20 46.49061 5.88649 36026 ft 403 kts 322°
2026-04-21 20:21 46.53675 5.84021 36028 ft 403 kts 322°
2026-04-21 20:21 46.58299 5.79373 36039 ft 404 kts 322°
2026-04-21 20:22 46.62934 5.74704 36032 ft 405 kts 322°
2026-04-21 20:22 46.69882 5.67687 36038 ft 405 kts 322°
2026-04-21 20:23 46.74514 5.62996 36042 ft 405 kts 322°
2026-04-21 20:23 46.79149 5.58293 36044 ft 406 kts 322°
2026-04-21 20:24 46.83783 5.53579 36068 ft 406 kts 322°
2026-04-21 20:24 46.88383 5.48891 36066 ft 406 kts 322°
2026-04-21 20:25 46.93015 5.44160 36074 ft 406 kts 322°
2026-04-21 20:25 46.97642 5.39424 36079 ft 406 kts 322°
2026-04-21 20:26 47.02271 5.34676 36079 ft 406 kts 322°
2026-04-21 20:26 47.06898 5.29919 36077 ft 406 kts 322°
2026-04-21 20:27 47.11523 5.25154 36077 ft 406 kts 322°
2026-04-21 20:27 47.16146 5.20381 36078 ft 406 kts 322°
2026-04-21 20:28 47.20769 5.15598 36076 ft 406 kts 322°
2026-04-21 20:28 47.25363 5.10834 36078 ft 406 kts 322°
2026-04-21 20:29 47.29978 5.06039 36076 ft 406 kts 322°
2026-04-21 20:29 47.34571 5.01255 36076 ft 405 kts 322°
2026-04-21 20:30 47.39178 4.96447 36084 ft 405 kts 322°
2026-04-21 20:30 47.43783 4.91629 36090 ft 405 kts 322°
2026-04-21 20:31 47.48391 4.86798 36101 ft 406 kts 322°
2026-04-21 20:31 47.52993 4.81964 36109 ft 406 kts 322°
2026-04-21 20:32 47.57593 4.77120 36116 ft 406 kts 322°
2026-04-21 20:32 47.62197 4.72262 36120 ft 406 kts 322°
2026-04-21 20:33 47.66796 4.67398 36124 ft 406 kts 322°
2026-04-21 20:33 47.71401 4.62517 36123 ft 406 kts 322°
2026-04-21 20:34 47.76001 4.57631 36129 ft 406 kts 322°
2026-04-21 20:34 47.80603 4.52731 36124 ft 407 kts 322°
2026-04-21 20:35 47.82873 4.50311 35882 ft 405 kts 322°
2026-04-21 20:35 47.85135 4.47898 35637 ft 395 kts 322°
2026-04-21 20:35 47.87359 4.45523 35404 ft 391 kts 321°
2026-04-21 20:35 47.89570 4.43157 35158 ft 391 kts 321°
2026-04-21 20:36 47.91789 4.40779 34926 ft 394 kts 321°
2026-04-21 20:36 47.94014 4.38392 34698 ft 393 kts 321°
2026-04-21 20:36 47.96228 4.36016 34457 ft 391 kts 321°
2026-04-21 20:36 47.98431 4.33649 34224 ft 389 kts 321°
2026-04-21 20:37 48.00617 4.31298 33755 ft 388 kts 321°
2026-04-21 20:37 48.02806 4.28940 33085 ft 386 kts 321°
2026-04-21 20:37 48.04986 4.26590 32355 ft 386 kts 321°
2026-04-21 20:37 48.07172 4.24230 31621 ft 387 kts 321°
2026-04-21 20:38 48.09355 4.21871 30882 ft 388 kts 321°
2026-04-21 20:38 48.11546 4.19500 30091 ft 389 kts 321°
2026-04-21 20:38 48.13746 4.17118 29206 ft 390 kts 321°
2026-04-21 20:38 48.15940 4.14739 28354 ft 390 kts 322°
2026-04-21 20:39 48.18143 4.12349 27481 ft 390 kts 322°
2026-04-21 20:39 48.20118 4.10204 26681 ft 391 kts 322°
2026-04-21 20:39 48.22319 4.07811 25902 ft 390 kts 322°
2026-04-21 20:39 48.24500 4.05439 25256 ft 385 kts 322°
2026-04-21 20:40 48.26662 4.03085 24607 ft 381 kts 322°
2026-04-21 20:40 48.28798 4.00755 23968 ft 378 kts 322°
2026-04-21 20:40 48.30918 3.98440 23256 ft 375 kts 323°
2026-04-21 20:40 48.33016 3.96147 22591 ft 371 kts 323°
2026-04-21 20:41 48.35095 3.93872 21949 ft 368 kts 323°
2026-04-21 20:41 48.37161 3.91609 21301 ft 366 kts 323°
2026-04-21 20:41 48.39240 3.89328 20671 ft 376 kts 323°
2026-04-21 20:41 48.41406 3.86949 20011 ft 391 kts 323°
2026-04-21 20:42 48.43619 3.84517 19332 ft 393 kts 323°
2026-04-21 20:42 48.45791 3.82128 18674 ft 390 kts 323°
2026-04-21 20:42 48.47976 3.79723 17916 ft 388 kts 323°
2026-04-21 20:42 48.50148 3.77329 17220 ft 385 kts 324°
2026-04-21 20:43 48.52303 3.74951 16548 ft 383 kts 324°
2026-04-21 20:43 48.54284 3.72308 16080 ft 376 kts 310°
2026-04-21 20:43 48.55750 3.69114 15909 ft 367 kts 304°
2026-04-21 20:43 48.57131 3.65792 15736 ft 383 kts 303°
2026-04-21 20:44 48.58552 3.62394 15512 ft 377 kts 304°
2026-04-21 20:44 48.59948 3.59107 15305 ft 367 kts 304°
2026-04-21 20:44 48.61314 3.55914 15128 ft 356 kts 304°
2026-04-21 20:44 48.62646 3.52804 14906 ft 349 kts 305°
2026-04-21 20:45 48.63958 3.49744 14700 ft 347 kts 304°
2026-04-21 20:45 48.65082 3.46469 14456 ft 357 kts 292°
2026-04-21 20:45 48.65823 3.42859 14263 ft 361 kts 288°
2026-04-21 20:45 48.66509 3.39200 14031 ft 360 kts 288°
2026-04-21 20:46 48.67182 3.35558 13779 ft 359 kts 288°
2026-04-21 20:46 48.67853 3.31928 13534 ft 358 kts 288°
2026-04-21 20:46 48.68527 3.28308 13302 ft 357 kts 288°
2026-04-21 20:46 48.69204 3.24686 13202 ft 358 kts 288°
2026-04-21 20:47 48.69878 3.21090 13169 ft 350 kts 288°
2026-04-21 20:47 48.70312 3.18771 13159 ft 343 kts 288°
2026-04-21 20:47 48.70951 3.15363 13143 ft 329 kts 288°
2026-04-21 20:47 48.71559 3.12107 13149 ft 314 kts 288°
2026-04-21 20:48 48.72141 3.08994 13151 ft 300 kts 288°
2026-04-21 20:48 48.72698 3.06014 13151 ft 289 kts 288°
2026-04-21 20:48 48.73234 3.03147 13154 ft 277 kts 289°
2026-04-21 20:48 48.73747 3.00392 13136 ft 265 kts 289°
2026-04-21 20:49 48.74239 2.97757 13082 ft 256 kts 289°
2026-04-21 20:49 48.74695 2.95312 12860 ft 253 kts 289°
2026-04-21 20:49 48.75119 2.93046 12294 ft 265 kts 289°
2026-04-21 20:49 48.75649 2.90225 11393 ft 289 kts 288°
2026-04-21 20:50 48.76201 2.87263 10935 ft 294 kts 288°
2026-04-21 20:50 48.76752 2.84288 10663 ft 293 kts 288°
2026-04-21 20:50 48.77297 2.81328 10425 ft 290 kts 288°
2026-04-21 20:50 48.77836 2.78398 10228 ft 287 kts 288°
2026-04-21 20:51 48.78371 2.75489 10052 ft 287 kts 288°
2026-04-21 20:51 48.78908 2.72569 9860 ft 287 kts 288°
2026-04-21 20:51 48.79437 2.69688 9672 ft 288 kts 288°
2026-04-21 20:51 48.79973 2.66765 9491 ft 288 kts 288°
2026-04-21 20:52 48.80510 2.63830 9321 ft 289 kts 288°
2026-04-21 20:52 48.81050 2.60883 9140 ft 290 kts 288°
2026-04-21 20:52 48.81590 2.57926 8963 ft 291 kts 288°
2026-04-21 20:52 48.82129 2.54961 8779 ft 292 kts 288°
2026-04-21 20:53 48.82670 2.51987 8607 ft 293 kts 288°
2026-04-21 20:53 48.83214 2.48993 8415 ft 295 kts 287°
2026-04-21 20:53 48.83751 2.46029 8238 ft 296 kts 287°
2026-04-21 20:53 48.84295 2.43016 8041 ft 296 kts 287°
2026-04-21 20:54 48.84838 2.40005 7869 ft 293 kts 287°
2026-04-21 20:54 48.85372 2.37046 7681 ft 288 kts 287°
2026-04-21 20:54 48.85892 2.34154 7545 ft 281 kts 287°
2026-04-21 20:54 48.86400 2.31329 7408 ft 274 kts 287°
2026-04-21 20:55 48.86896 2.28564 7276 ft 268 kts 287°
2026-04-21 20:55 48.87380 2.25866 7186 ft 262 kts 287°
2026-04-21 20:55 48.87856 2.23213 7178 ft 259 kts 287°
2026-04-21 20:55 48.88328 2.20575 6968 ft 260 kts 287°
2026-04-21 20:56 48.88807 2.17897 6649 ft 264 kts 287°
2026-04-21 20:56 48.89289 2.15191 6382 ft 266 kts 287°
2026-04-21 20:56 48.89770 2.12475 6100 ft 266 kts 285°
2026-04-21 20:56 48.89901 2.09682 5844 ft 266 kts 266°
2026-04-21 20:57 48.89936 2.06881 5581 ft 266 kts 286°
2026-04-21 20:57 48.90750 2.04461 5450 ft 253 kts 318°
2026-04-21 20:57 48.92154 2.03058 5333 ft 235 kts 351°
2026-04-21 20:57 48.93682 2.02991 5205 ft 210 kts 25°
2026-04-21 20:58 48.94813 2.04122 5131 ft 194 kts 56°
2026-04-21 20:58 48.95589 2.05808 5038 ft 195 kts 61°
2026-04-21 20:58 48.96267 2.07603 5002 ft 196 kts 73°
2026-04-21 20:58 48.96583 2.09592 4987 ft 191 kts 78°
2026-04-21 20:59 48.96851 2.11560 4986 ft 188 kts 81°
2026-04-21 20:59 48.97039 2.13522 4980 ft 188 kts 84°
2026-04-21 20:59 48.97178 2.15517 5008 ft 191 kts 85°
2026-04-21 20:59 48.97291 2.17526 5135 ft 190 kts 85°
2026-04-21 21:00 48.97396 2.19478 5153 ft 177 kts 86°
2026-04-21 21:00 48.97478 2.21301 5028 ft 169 kts 86°
2026-04-21 21:00 48.97561 2.23048 4835 ft 163 kts 86°
2026-04-21 21:00 48.97645 2.24753 4578 ft 161 kts 86°
2026-04-21 21:01 48.97715 2.26433 4358 ft 157 kts 85°
2026-04-21 21:01 48.97801 2.28073 4097 ft 155 kts 85°
2026-04-21 21:01 48.97884 2.29693 3874 ft 152 kts 85°
2026-04-21 21:01 48.97967 2.31287 3677 ft 149 kts 85°
2026-04-21 21:02 48.98052 2.32828 3438 ft 148 kts 86°
2026-04-21 21:02 48.98128 2.34385 3213 ft 148 kts 85°
2026-04-21 21:02 48.98213 2.35938 3029 ft 147 kts 85°
2026-04-21 21:02 48.98298 2.37500 2888 ft 149 kts 85°
2026-04-21 21:03 48.98372 2.39088 2767 ft 152 kts 86°
2026-04-21 21:03 48.98447 2.40700 2533 ft 153 kts 85°
2026-04-21 21:03 48.98535 2.42307 2234 ft 150 kts 85°
2026-04-21 21:03 48.98614 2.43822 2086 ft 134 kts 85°
2026-04-21 21:04 48.98680 2.45174 1851 ft 123 kts 85°
2026-04-21 21:04 48.98752 2.46441 1722 ft 122 kts 85°
2026-04-21 21:04 48.98818 2.47756 1538 ft 126 kts 85°
2026-04-21 21:04 48.98885 2.49094 1372 ft 128 kts 84°
2026-04-21 21:05 48.98968 2.50454 1162 ft 130 kts 83°
2026-04-21 21:05 48.99039 2.51854 969 ft 136 kts 84°
2026-04-21 21:05 48.99117 2.53293 812 ft 137 kts 83°
2026-04-21 21:05 48.99194 2.54748 618 ft 139 kts 83°
2026-04-21 21:06 48.99273 2.56203 430 ft 139 kts 83°
2026-04-21 21:06 48.99348 2.57611 351 ft 119 kts 85°
2026-04-21 21:06 48.99403 2.58631 351 ft 74 kts 85°
2026-04-21 21:06 48.99432 2.59104 352 ft 26 kts 78°
2026-04-21 21:07 48.99497 2.59351 352 ft 24 kts 65°
2026-04-21 21:07 48.99560 2.59560 356 ft 16 kts 65°
2026-04-21 21:07 48.99607 2.59676 355 ft 10 kts 35°
2026-04-21 21:07 48.99675 2.59689 353 ft 10 kts 358°
2026-04-21 21:08 48.99745 2.59682 357 ft 11 kts 355°
2026-04-21 21:08 48.99841 2.59669 352 ft 16 kts 355°
2026-04-21 21:08 48.99951 2.59656 356 ft 16 kts 355°
2026-04-21 21:08 49.00050 2.59640 356 ft 10 kts 341°
2026-04-21 21:09 49.00079 2.59552 353 ft 10 kts 266°
2026-04-21 21:09 49.00073 2.59435 357 ft 12 kts 265°
2026-04-21 21:09 49.00065 2.59300 353 ft 14 kts 265°
2026-04-21 21:09 49.00057 2.59138 353 ft 17 kts 265°
2026-04-21 21:10 49.00046 2.58937 360 ft 21 kts 265°
2026-04-21 21:10 49.00033 2.58699 353 ft 24 kts 265°
2026-04-21 21:10 49.00019 2.58430 353 ft 27 kts 265°
2026-04-21 21:10 49.00003 2.58134 353 ft 29 kts 265°
2026-04-21 21:11 48.99986 2.57813 356 ft 31 kts 265°
2026-04-21 21:11 48.99969 2.57482 353 ft 31 kts 265°
2026-04-21 21:11 48.99952 2.57165 355 ft 29 kts 265°
2026-04-21 21:11 48.99936 2.56868 353 ft 27 kts 265°
2026-04-21 21:12 48.99921 2.56589 353 ft 25 kts 265°
2026-04-21 21:12 48.99907 2.56329 353 ft 24 kts 265°
2026-04-21 21:12 48.99894 2.56087 353 ft 22 kts 265°
2026-04-21 21:12 48.99900 2.55880 353 ft 19 kts 284°
2026-04-21 21:13 48.99946 2.55704 360 ft 16 kts 312°
2026-04-21 21:13 48.99993 2.55555 357 ft 16 kts 294°
2026-04-21 21:13 49.00091 2.55484 360 ft 17 kts 344°
2026-04-21 21:13 49.00226 2.55425 360 ft 23 kts 344°
2026-04-21 21:14 49.00386 2.55355 353 ft 24 kts 344°
2026-04-21 21:14 49.00539 2.55289 359 ft 22 kts 344°
2026-04-21 21:14 49.00653 2.55245 358 ft 12 kts
2026-04-21 21:14 49.00708 2.55322 358 ft 11 kts 59°
2026-04-21 21:15 49.00725 2.55432 360 ft 11 kts 84°
2026-04-21 21:15 49.00736 2.55570 357 ft 15 kts 83°
2026-04-21 21:15 49.00749 2.55743 356 ft 18 kts 83°
2026-04-21 21:15 49.00769 2.55947 357 ft 21 kts 82°
2026-04-21 21:16 49.00791 2.56175 358 ft 22 kts 81°
2026-04-21 21:16 49.00805 2.56361 354 ft 13 kts 96°
2026-04-21 21:16 49.00746 2.56448 357 ft 13 kts 172°
2026-04-21 21:16 49.00667 2.56471 355 ft 11 kts 152°
2026-04-21 21:17 49.00616 2.56538 355 ft 9 kts 105°
2026-04-21 21:17 49.00618 2.56635 353 ft 9 kts 85°
2026-04-21 21:17 49.00623 2.56729 358 ft 9 kts 86°
2026-04-21 21:17 49.00627 2.56812 356 ft 8 kts 85°
2026-04-21 21:18 49.00622 2.56865 353 ft 3 kts 149°
2026-04-21 21:18 49.00600 2.56857 353 ft 4 kts 206°
2026-04-21 21:18 49.00568 2.56828 361 ft 4 kts 210°
2026-04-21 21:18 49.00553 2.56815 354 ft 2 kts 210°
2026-04-21 21:19 49.00551 2.56813 354 ft 0 kts 210°